OpenBCM V2.0.3 (Linux)

Packet Radio Mailbox

IZ3LSV

[San Dona' di P. JN]

 Login: GUEST





  
CX2SA  > KEPS     02.05.14 02:40l 263 Lines 12593 Bytes #999 (0) @ WW
BID : ORB14121.N
Read: GUEST S55MT
Subj: 2Line Orbital Elements 14121.AMSAT
Path: IZ3LSV<IR1UAW<IK1NHL<CX2SA
Sent: 140502/0036Z @:CX2SA.SAL.URY.SA #:5682 [Salto] FBB7.00e $:ORB14121.N
From: CX2SA@CX2SA.SAL.URY.SA
To  : KEPS@AMSAT


HR AMSAT ORBITAL ELEMENTS FOR AMATEUR SATELLITES IN NASA FORMAT
FROM WA5QGD FORT WORTH,TX May 1, 2014
BID: ORB14121.N

DECODE 2-LINE ELSETS WITH THE FOLLOWING KEY:
1 AAAAAU 00  0  0 BBBBB.BBBBBBBB  .CCCCCCCC  00000-0  00000-0 0  DDDZ
2 AAAAA EEE.EEEE FFF.FFFF GGGGGGG HHH.HHHH III.IIII JJ.JJJJJJJJKKKKKZ
KEY: A-CATALOGNUM B-EPOCHTIME C-DECAY D-ELSETNUM E-INCLINATION F-RAAN
G-ECCENTRICITY H-ARGPERIGEE I-MNANOM J-MNMOTION K-ORBITNUM Z-CHECKSUM

TO ALL RADIO AMATEURS BT

AO-07
1 07530U 74089B   14121.04756154 -.00000018  00000-0  15895-3 0  9524
2 07530 101.4684 104.4379 0012157 029.3509 017.3099 12.53604514805613
FO-29
1 24278U 96046B   14121.11401091 -.00000039  00000-0 -56399-5 0  3630
2 24278 098.5145 141.4637 0351289 059.9202 343.1058 13.53022603874309
SO-33
1 25509U 98061B   14121.28473594  .00000655  00000-0  11905-3 0  7416
2 25509 031.4320 066.1322 0349518 063.4978 057.9211 14.29515181810431
RS-22
1 27939U 03042A   14121.72601680  .00000822  00000-0  16108-3 0  4488
2 27939 097.8067 298.1889 0012267 255.5010 104.4841 14.65141510565927
VO-52
1 28650U 05017B   14121.06732518  .00002349  00000-0  27777-3 0  7242
2 28650 097.5601 128.3943 0023732 316.0153 043.9173 14.85337479486238
HO-68
1 36122U 09072B   14121.74616435 -.00000043  00000-0  00000 0 0  5451
2 36122 100.2526 175.0288 0007296 346.1127 013.9770 13.16314813210327
AO-73
1 39444U 13066AE  14120.97683810  .00002895  00000-0  39374-3 0  1300
2 39444 097.7743 193.2331 0063001 038.0952 322.4603 14.78159170 22492
UO-11
1 14781U 84021B   14121.16127018  .00000608  00000-0  84130-4 0  4787
2 14781 097.8562 182.1954 0007745 342.4290 017.6654 14.81537936621002
AO-16
1 20439U 90005D   14120.80759042  .00000173  00000-0  80054-4 0   112
2 20439 098.5045 059.0419 0009709 302.1218 111.0309 14.32342640267707
LO-19
1 20442U 90005G   14121.13909501  .00000128  00000-0  63058-4 0  9495
2 20442 098.4752 060.1645 0010589 288.8880 071.1156 14.32546080267948
AO-27
1 22825U 93061C   14120.81042859  .00000145  00000-0  73617-4 0  6549
2 22825 098.6586 067.1533 0009538 080.0039 332.2895 14.29707596 74017
IO-26
1 22826U 93061D   14121.08543514  .00000154  00000-0  76651-4 0  4116
2 22826 098.6528 067.6539 0010045 072.7271 287.5009 14.30006799 74182
GO-32
1 25397U 98043D   14121.49741644  .00000059  00000-0  44224-4 0  3356
2 25397 098.4642 081.2386 0002508 095.4810 018.3743 14.23437154821226
NO-44
1 26931U 01043C   14121.53794821  .00000087  00000-0  65638-4 0  5912
2 26931 067.0503 158.7498 0005904 281.4741 078.5697 14.30101773656939
SO-50
1 27607U 02058C   14121.80574979  .00000669  00000-0  12184-3 0  3797
2 27607 064.5579 013.7256 0042050 026.0114 334.3088 14.73704768610642
CO-55
1 27844U 03031E   14121.82879808  .00000263  00000-0  14013-3 0  9130
2 27844 098.6987 131.2687 0010521 055.4258 068.9051 14.21482289561990
CO-57
1 27848U 03031J   14120.96588086  .00000207  00000-0  11536-3 0  8542
2 27848 098.7081 130.1034 0010558 063.6668 355.5488 14.21172148561797
AO-51
1 28375U 04025K   14120.86299267  .00000233  00000-0  81780-4 0  8279
2 28375 098.2467 069.3950 0084257 134.9594 225.8468 14.41363401517090
CP3
1 31129U 07012N   14121.86561693  .00000837  00000-0  19374-3 0  7352
2 31129 097.9305 102.2092 0099478 154.5273 243.1272 14.54594087373305
CO-65
1 32785U 08021C   14121.13893303  .00001341  00000-0  16256-3 0  9368
2 32785 097.7037 173.9726 0012952 349.5189 068.4095 14.85166669325041
PRISM
1 33493U 09002B   14121.72034790  .00005286  00000-0  56509-3 0  8745
2 33493 098.2463 295.4134 0016790 233.4163 126.5490 14.89116529285265
SOHLA-1
1 33496U 09002E   14121.86784758  .00000481  00000-0  87098-4 0  3384
2 33496 098.1638 242.7034 0006769 041.5538 070.4099 14.70767514282708
TISAT-1
1 36799U 10035E   14121.81060433  .00003595  00000-0  42254-3 0  1362
2 36799 098.0164 213.4657 0015545 111.3143 248.9684 14.85443257205838
STUDSAT
1 36801U 10035G   14121.77941531  .00009951  00000-0  89167-3 0  8169
2 36801 098.0338 220.5926 0010112 092.5041 267.7844 14.95801152206195
ALMASAT-1
1 38078U 12006B   14121.05104948  .00029515  00000-0  65181-3 0   116
2 38078 069.4677 172.7033 0603788 094.4658 314.8293 14.46770587114812
XATCOBEO
1 38082U 12006F   14121.85576505  .00283219  21348-4  23533-2 0  1784
2 38082 069.4473 085.3134 0279147 045.9355 356.2710 15.33359981117236
CUBEBUG-1
1 39153U 13018D   14121.76942824  .00002005  00000-0  28712-3 0   806
2 39153 098.0449 202.1655 0018704 137.6958 222.5675 14.77592541 54707
ESTCUBE-1
1 39161U 13021C   14121.73068583  .00001601  00000-0  27567-3 0   579
2 39161 098.0985 202.9672 0010205 173.9275 186.2027 14.69900099 52775
MET-2/21
1 22782U 93055A   14120.41418641  .00000033  00000-0  16584-4 0   412
2 22782 082.5512 211.2031 0022809 042.9079 003.4098 13.83736406 43516
OKEAN-4
1 23317U 94066A   14121.47889582  .00001113  00000-0  12608-3 0  5207
2 23317 082.5369 111.7207 0019166 251.1935 227.0708 14.85436364 56178
NOAA-14
1 23455U 94089A   14120.44927139  .00000043  00000-0  45601-4 0  7362
2 23455 098.7783 204.7310 0009974 169.9291 249.4681 14.13968741997201
NOAA-15
1 25338U 98030A   14120.47254576  .00000161  00000-0  87183-4 0  1675
2 25338 098.7508 114.4299 0009383 287.4274 235.1548 14.25407876830044
RESURS
1 25394U 98043A   14120.80762931  .00000031  00000-0  31555-4 0  6445
2 25394 098.4084 087.1854 0002297 070.2276 347.8566 14.24391841821574
FENGYUN1
1 25730U 99025A   14121.50589617  .00000676  00000-0  39374-3 0  1363
2 25730 098.9096 082.8970 0024392 240.8274 254.4148 14.11834300770930
OKEAN-0
1 25860U 99039A   14121.78114132  .00000604  00000-0  96846-4 0  2379
2 25860 098.0383 085.9356 0001514 126.0440 297.0228 14.75218148795314
NOAA-16
1 26536U 00055A   14120.36755824  .00000205  00000-0  13389-3 0  6586
2 26536 098.9939 180.5129 0009619 324.2365 092.5290 14.13031470701365
NOAA-17
1 27453U 02032A   14120.46802560  .00000121  00000-0  69494-4 0  5634
2 27453 098.3134 122.6952 0010559 318.3246 195.7533 14.24741584615897
NOAA-18
1 28654U 05018A   14120.49264419  .00000281  00000-0  17863-3 0   514
2 28654 099.1446 099.0451 0014899 042.0322 065.9229 14.12004272460839
NOAA-19
1 33591U 09005A   14120.44645720  .00000072  00000-0  64151-4 0  2156
2 33591 098.9415 065.6358 0012968 252.6095 245.4893 14.11703630269252
HUBBLE
1 20580U 90037B   14121.77728882  .00002478  00000-0  15725-3 0    43
2 20580 028.4707 342.1930 0003151 141.7891 264.6119 15.05282717117712
ISS
1 25544U 98067A   14121.89616942 -.00006132  00000-0 -10042-3 0  1967
2 25544 051.6492 329.0092 0002215 283.9451 207.7715 15.49767528884144
CO-58
1 28895U 05043F   14121.11875662  .00000704  00000-0  14939-3 0  7559
2 28895 097.8392 325.4237 0018291 155.8236 204.3829 14.61821451453372
FALCON
1 30776U 07006E   14121.23075479  .00008203  00000-0  42309-3 0  8557
2 30776 035.4300 044.3539 0003007 259.3974 227.6945 15.15701819393601
MAST
1 31126U 07012K   14120.96793922  .00000621  00000-0  14544-3 0   326
2 31126 097.9110 104.3355 0093472 141.0710 285.4290 14.55210971373527
CAPE1
1 31130U 07012P   14121.84171623  .00000778  00000-0  18159-3 0   393
2 31130 097.9316 101.7610 0100059 155.8734 204.7198 14.54354850373079
COMPASS
1 32787U 08021E   14121.76070639  .00002645  00000-0  29595-3 0  9175
2 32787 097.7055 176.6154 0012836 340.4029 019.6693 14.87675766325285
AAUSAT2
1 32788U 08021F   14121.78665953  .00002782  00000-0  30585-3 0  9046
2 32788 097.7062 177.5721 0012381 338.6776 021.3924 14.88360524325345
DO-64
1 32789U 08021G   14121.17187351  .00006802  00000-0  66079-3 0  9427
2 32789 097.7239 183.0330 0010795 325.3659 091.1419 14.92880476325487
CO-66
1 32791U 08021J   14121.20483591  .00002802  00000-0  32312-3 0  9002
2 32791 097.7051 174.9368 0013600 345.2337 014.8480 14.86380311325075
RS-30
1 32953U 08025A   14121.70931219  .00000010  00000-0  00000 0 0  8784
2 32953 082.5037 230.1034 0017990 255.7909 104.1173 12.43046210269484
METEOR-M
1 35865U 09049A   14121.71267337  .00000012  00000-0  24680-4 0  4918
2 35865 098.5544 170.5221 0001724 218.3119 141.7924 14.21919949239732
RS-38
1 35869U 09049E   14121.63978572  .00000038  00000-0  36495-4 0  4165
2 35869 098.5475 170.2687 0004085 216.0946 259.7080 14.22204416239750
JUGNU
1 37839U 11058B   14121.48194425  .00000402  00000-0  72961-4 0  6094
2 37839 019.9597 178.0001 0018839 189.2808 290.1484 14.12298943131943
SRMSAT
1 37841U 11058D   14121.48399919  .00000379  00000-0  63883-4 0  6133
2 37841 019.9703 196.3738 0011881 130.1694 348.9401 14.10343087131751
RAX-2
1 37853U 11061D   14121.86177262  .00005024  00000-0  35180-3 0  7925
2 37853 101.7171 129.4354 0218400 190.5717 291.5446 14.88840307135765
AUBIESAT
1 37854U 11061E   14121.61980978  .00004919  00000-0  33465-3 0  7730
2 37854 101.7204 130.7774 0216608 188.7487 291.8775 14.90097764135778
HRBE
1 37855U 11061F   14121.58705938  .00005855  00000-0  40067-3 0  7813
2 37855 101.7209 130.1621 0218657 189.8979 287.6237 14.89440711135748
RS-39
1 38051U 11062C   14121.81240313  .00073213  00000-0  10670-2 0  4984
2 38051 051.6279 095.3743 0008495 030.9779 040.3802 15.55001388126889
E-STAR
1 38079U 12006C   14121.44458916  .00114352  56373-5  15233-2 0  8390
2 38079 069.4549 114.0604 0407910 062.2367 092.8593 14.98137125116431
GOLIAT
1 38085U 12006J   14121.49706991  .00097148  48983-5  13542-2 0    47
2 38085 069.4586 119.9610 0427981 065.2466 299.2589 14.93110528116287
HORYU-2
1 38340U 12025D   14120.86078151  .00002136  00000-0  34515-3 0  8398
2 38340 098.2563 077.2725 0012181 332.1607 027.8947 14.72388783104832
RS-40
1 38735U 12041C   14121.26232317  .00000024  00000-0  10000-3 0  5568
2 38735 082.4737 316.8069 0017162 359.9475 000.1613 12.42558835 79753
